Weather Roundup
Issued by NWS

Home | Current Version | Previous Version | Graphics & Text | Print | Product List | Glossary Off
Versions: 1 2 3 4 5 6 7 8 9 10 11 12 13 14 15 16 17 18 19 20 21 22 23 24 25 26 27 28 29 30 31 32 33 34 35 36 37 38 39 40 41 42 43 44 45 46 47 48 49 50

000
NZUS93 KARX 152010
HRRWXR

CURRENT HOURLY OBSERVATIONS ACROSS
MUCH OF THE UPPER MISSISSIPPI VALLEY
NATIONAL WEATHER SERVICE LA CROSSE WI
300 PM CDT MON SEP 15 2014


...SOUTHEAST MINNESOTA...


CITY           SKY/WX    TMP DP  RH WIND       PRES   REMARKS
ROCHESTER      MOSUNNY   59  43  55 N10       30.20F
ROCHESTER/MAYO CLOUDY    58  40  52 NW10G17   30.19F
WINONA         PTSUNNY   61  46  59 NW7G16    30.18F
AUSTIN         PTSUNNY   57  45  62 N10       30.20F
ALBERT LEA     MOSUNNY   61  43  51 NW10      30.20F
DODGE CENTER   PTSUNNY   55  43  62 N12       30.21S
PRESTON        MOSUNNY   58  49  74 N12G18    30.19F
OWATONNA       PTSUNNY   59  43  55 NW9       30.21S
FARIBAULT      PTSUNNY   61  39  44 N6        30.21F
$$

...ELSEWHERE IN MINNESOTA...


CITY           SKY/WX    TMP DP  RH WIND       PRES   REMARKS
MINNEAPOLIS    PTSUNNY   59  40  49 NW13      30.21S
INTNL FALLS    MOSUNNY   60  36  40 W9G21     30.13F
DULUTH         MOSUNNY   57  32  38 N8G20     30.16F
RED WING       CLOUDY    61  37  41 N8        30.19R
REDWOOD FALLS  MOSUNNY   62  38  40 NW13      30.23F
MANKATO        PTSUNNY   57  37  47 N12       30.22S
WORTHINGTON    PTSUNNY   57  37  47 NW8       30.25S
FAIRMONT       CLOUDY    61  34  36 N10       30.23S
$$

...SOUTHWEST WISCONSIN...


CITY           SKY/WX    TMP DP  RH WIND       PRES   REMARKS
LA CROSSE      PTSUNNY   61  46  57 W9        30.17F
PRAIRIE DU CHI CLOUDY    56  47  70 NW6       30.16S
BOSCOBEL       PTSUNNY   61  48  62 N10       30.17R
LONE ROCK      CLOUDY    60  49  66 NW12G17   30.15S
PLATTEVILLE    CLOUDY    55  50  85 N9G16     30.15R
FORT MC COY    SUNNY     58  46  63 NW9       30.17F
CAMP DOUGLAS   PTSUNNY   55  50  82 W9        30.15F
VIROQUA        FAIR      57  44  61 NW10      30.17S
WIS DELLS      CLOUDY    54  47  77 NW9G20    30.14S
$$

...ELSEWHERE IN WISCONSIN...


CITY           SKY/WX    TMP DP  RH WIND       PRES   REMARKS
MILWAUKEE      CLOUDY    55  51  86 N12       30.11R
MADISON        LGT RAIN  53  50  89 NW7       30.14F
GREEN BAY      CLOUDY    58  49  72 SW8       30.11F
EAU CLAIRE     PTSUNNY   60  39  45 NW8       30.16F
BLACK RVR FLS  MOCLDY    59  46  63 W10       30.16S
MEDFORD        CLOUDY    56  40  56 NW12      30.14S
WAUSAU         PTSUNNY   60  39  45 NW8       30.10F
WIS RAPIDS     LGT RAIN  58  51  78 SW9       30.14F
MARSHFIELD     PTSUNNY   59  41  51 NW10      30.13F
RICE LAKE      CLOUDY    60  35  38 NW8G20    30.19F
$$

...NORTHEAST IOWA...


CITY           SKY/WX    TMP DP  RH WIND       PRES   REMARKS
WATERLOO       PTSUNNY   59  49  69 N12       30.17S
DUBUQUE        CLOUDY    51  50  96 NE12      30.14R
DECORAH        MOSUNNY   57  43  58 N9        30.17S
MASON CITY     CLOUDY    57  45  64 N9        30.22S
CHARLES CITY   CLOUDY    59  45  58 N9        30.20S
OELWEIN        PTSUNNY   57  48  72 N12       30.18S
$$

...ELSEWHERE IN IOWA...


CITY           SKY/WX    TMP DP  RH WIND       PRES   REMARKS
DES MOINES     PTSUNNY   64  51  62 N12       30.18S
IOWA CITY      PTSUNNY   62  53  72 N17       30.12R
FORT DODGE     CLOUDY    57  45  62 N5        30.23S
MARSHALLTOWN   CLOUDY    58  48  69 N15       30.18R
CEDAR RAPIDS   CLOUDY    56  51  84 N16G24    30.14R
$$

...NORTHERN ILLINOIS...


CITY           SKY/WX    TMP DP  RH WIND       PRES   REMARKS
CHICAGO-OHARE  CLOUDY    61  50  67 SW7       30.08S
DUPAGE         CLOUDY    58  51  78 S5        30.08F
CHICAGO-MIDWAY CLOUDY    59  52  77 W7        30.09R
MOLINE         PTSUNNY   68  55  63 NE6       30.06F
ROCKFORD       LGT RAIN  57  53  86 NW8       30.13R
STERLING       CLOUDY    63  54  72 N3        30.08F
PEORIA         LGT RAIN  59  56  89 SW5       30.08R FOG
$$

NOTE: "FAIR" INDICATES FEW OR NO CLOUDS BELOW 12,000 FEET WITH NO
SIGNIFICANT WEATHER AND/OR OBSTRUCTIONS TO VISIBILITY. WIND
SPEEDS ARE IN MILES-PER-HOUR.



USA.gov is the U.S. government's official web portal to all federal, state and local government web resources and services.